Regional Weather Roundup
Issued by NWS Green Bay, WI

Home | Current Version | Previous Version | Text Only | Print | Product List | Glossary On
Versions: 1 2 3 4 5 6 7 8 9 10 11 12 13 14 15 16 17 18 19 20 21 22 23 24 25 26 27 28 29 30 31 32 33 34 35 36 37 38 39 40 41 42 43 44 45 46 47 48 49 50
000
ASUS43 KGRB 241411
RWRGRB

NORTH-CENTRAL AND NORTHEAST WISCONSIN REGIONAL WEATHER ROUNDUP
NATIONAL WEATHER SERVICE GREEN BAY WI
900 AM CDT WED AUG 24 2016

WIZ005-009-010>012-018-019-241500-
NORTH CENTRAL WISCONSIN

CITY           SKY/WX    TMP DP  RH WIND       PRES   REMARKS
IRONWOOD       CLOUDY    68  66  94 S6        29.83S
MANITOWISH WTR DRIZZLE   65  65 100 S6        29.84S
ARBOR VITAE    DRIZZLE   66  64  96 S6        29.84
EAGLE RIVER    HVY RAIN  65  65 100 S3        29.85R
LAND O LAKES   RAIN      66  65  99 CALM      29.86S
RHINELANDER    LGT RAIN  66  66 100 S9        29.85S FOG
PHILLIPS       HVY RAIN  65  65 100 SW8       29.83S
ANTIGO         CLOUDY    66  66 100 S8        29.87S
TOMAHAWK       DRIZZLE   65  64  95 CALM      29.85S
MERRILL        CLOUDY    67  67 100 S7        29.86S
$$

WIZ013-073-241500-
NORTHEAST WISCONSIN

CITY           SKY/WX    TMP DP  RH WIND       PRES   REMARKS
IRON MOUNTAIN  LGT RAIN  67  65  93 SE5       29.83F FOG
MARINETTE      CLOUDY   N/A N/A N/A SW7       29.84F
OCONTO         CLOUDY    68  67  96 S3        29.84F
$$

WIZ017-030-035>037-045-241500-
CENTRAL WISCONSIN

CITY           SKY/WX    TMP DP  RH WIND       PRES   REMARKS
MEDFORD        CLOUDY    65  65 100 S9        29.86R FOG
WAUSAU         RAIN      67  65  93 SW9       29.85S FOG
MOSINEE        CLOUDY    66  66 100 S9        29.88R
MARSHFIELD     LGT RAIN  67  64  90 S12       29.87R
WISC RAPIDS    LGT RAIN  68  67  96 SW6       29.89S
STEVENS POINT  LGT RAIN  65  65  98 S10       29.88S
WAUPACA        CLOUDY    70  69  98 S8        29.88S
SHAWANO        CLOUDY    71  69  95 SW6       29.86S
CLINTONVILLE   CLOUDY    70  68  94 SW7       29.87R
WAUTOMA        CLOUDY    68  66  93 S6        29.89F
$$

WIZ038-039-048-051-241500-
FOX VALLEY

CITY           SKY/WX    TMP DP  RH WIND       PRES   REMARKS
NWS GREEN BAY  CLOUDY    71  71 100 SW9       29.87S
APPLETON       CLOUDY    70  70 100 SW12G18   29.88S
OSHKOSH        CLOUDY    68  66  93 S10       29.88F
FOND DU LAC    CLOUDY    69  66  90 S14       29.89F
$$

WIZ022-050-052-241500-
EAST CENTRAL WISCONSIN

CITY           SKY/WX    TMP DP  RH WIND       PRES   REMARKS
EPHRAIM        CLOUDY    67  67 100 S3        29.85F
WASHINGTON ISL NOT AVBL
STURGEON BAY   PTSUNNY   69  68  96 SW10      29.87S
MANITOWOC      LGT RAIN  71  68  90 MISG      29.89S
SHEBOYGAN      LGT RAIN  71  67  87 SW13      29.91S
$$

LMZ563-521-522-541>543-241500-
LAKESHORE

STATION/POSITION TIME  TEMP    WIND        PRES    VSBY  WAVE
                       AIR SEA DIR/SP/G                  HT/PER
                 (UTC) (F)     (DEG/KT/KT) (MB)    (MI)  (FT/S)
SHEBOYGAN LKSHOR 1400   68     200/ 13/ 15 1012.0F
KEWAUNEE LKSHORE 1300   64     180/ 12/ 16 1011.3S
NORTHPORT PIER   1300   69     150/  6/ 12 1011.9F
N MID LAKE BUOY  1350   68 70  160/ 10/ 14 1011.1F         4/ 6
S GREEN BAY BUOY 1300   70 73  180/ 14/ 16 1010.8
SISTER BAY LKSHO 1307   68     170/ 12/ 15   N/A
CHAMBERS ISLAND  1300   68     160/  4/  7 1011.2F
MENOMINEE LKSHOR 1300   67     170/  5/  7 1010.2F
$$



USA.gov is the U.S. government's official web portal to all federal, state and local government web resources and services.